Olive Branch, MS

6:35 PM CST on February 25, 2017 (GMT -0600)
Olive Branch

Weather History for KOLV - January, 2012

Change the Weather History Date:

Thursday, January 5, 2012

  Actual Average (KMEM) Record (KMEM)
Temperature  
Mean Temperature 44 °F -  
Max Temperature 57 °F 45 °F 71 °F (2005)
Min Temperature 32 °F 30 °F 0 °F (1884)
Degree Days  
Heating Degree Days 20    
Moisture  
Dew Point 33 °F    
Average Humidity 81    
Maximum Humidity 100    
Minimum Humidity 31    
Precipitation  
Precipitation 0.00 in - - ()
Sea Level Pressure  
Sea Level Pressure 30.18 in    
Wind  
Wind Speed 3 mph (SW)    
Max Wind Speed 13 mph    
Max Gust Speed -    
Visibility 10 miles    
Events      
Averages and records for this station are not official NWS values.
T = Trace of Precipitation, MM = Missing Value Source: NWS Daily Summary

Daily Weather History Graph

Daily Weather History Graph

Search for Another Location

Airport or City:

Trip Planner

Search our weather history database for the weather conditions in past years. The results will help you decide how hot, cold, wet, or windy it might be!

Date:

Astronomy

Jan. 05, 2012 Rise Set
Actual Time 7:07 AM CST 5:01 PM CST
Civil Twilight 6:39 AM CST 5:29 PM CST
Nautical Twilight 6:08 AM CST 6:00 PM CST
Astronomical Twilight 5:37 AM CST 6:31 PM CST
Moon 2:05 PM CST (1/5) 3:52 AM CST (1/5)
Length of Visible Light 10h 49m
Length of Day
9h 53m
Waxing Gibbous, 88% of the Moon is Illuminated
Jan 5
Waxing Gibbous
Jan 9
Full
Jan 16
Last Quarter
Jan 23
New
Jan 30
First Quarter

Hourly Weather History & Observations

Time (CST) Temp. Windchill Dew Point Humidity Pressure Visibility Wind Dir Wind Speed Gust Speed Precip Events Conditions
12:15 AM 35.6 °F - 35.6 °F 100% 30.24 in - Calm Calm - 0.00 in   Unknown
12:35 AM 35.6 °F - 35.6 °F 100% 30.24 in - Calm Calm - 0.00 in   Unknown
12:55 AM 35.6 °F - 35.6 °F 100% 30.23 in - Calm Calm - 0.00 in   Unknown
1:15 AM 33.8 °F - 33.8 °F 100% 30.23 in - Calm Calm - 0.00 in   Unknown
1:35 AM 33.8 °F - 33.8 °F 100% 30.23 in - Calm Calm - 0.00 in   Unknown
1:55 AM 33.8 °F - 33.8 °F 100% 30.23 in - Calm Calm - 0.00 in   Unknown
2:15 AM 33.8 °F - 33.8 °F 100% 30.23 in - Calm Calm - 0.00 in   Unknown
2:35 AM 35.6 °F - 35.6 °F 100% 30.22 in - Calm Calm - 0.00 in   Unknown
2:55 AM 33.8 °F - 33.8 °F 100% 30.22 in - Calm Calm - 0.00 in   Unknown
3:15 AM 35.6 °F 32.8 °F 33.8 °F 93% 30.22 in - West 3.5 mph - 0.00 in   Unknown
3:35 AM 35.6 °F 31.7 °F 35.6 °F 100% 30.21 in - WNW 4.6 mph - 0.00 in   Unknown
3:55 AM 35.6 °F 31.7 °F 33.8 °F 93% 30.20 in - WNW 4.6 mph - 0.00 in   Unknown
4:15 AM 33.8 °F 30.8 °F 33.8 °F 100% 30.20 in - NW 3.5 mph - 0.00 in   Unknown
4:35 AM 33.8 °F - 33.8 °F 100% 30.21 in - Calm Calm - 0.00 in   Unknown
4:55 AM 35.6 °F 31.7 °F 33.8 °F 93% 30.21 in - NW 4.6 mph - 0.00 in   Unknown
5:15 AM 35.6 °F - 33.8 °F 93% 30.21 in - Calm Calm - 0.00 in   Unknown
5:35 AM 35.6 °F - 33.8 °F 93% 30.21 in - Calm Calm - 0.00 in   Unknown
5:55 AM 35.6 °F - 33.8 °F 93% 30.21 in - Calm Calm - 0.00 in   Unknown
6:50 AM 33.8 °F - 32.0 °F 93% 30.23 in 10.0 mi Calm Calm - N/A   Clear
7:45 AM 32.0 °F - 32.0 °F 100% 30.25 in 10.0 mi Calm Calm - N/A   Clear
8:50 AM 39.2 °F - 37.4 °F 93% 30.27 in 10.0 mi Calm Calm - N/A   Clear
10:50 AM 50.0 °F - 33.8 °F 54% 30.27 in 10.0 mi Calm Calm - N/A   Clear
11:50 AM 53.6 °F - 32.0 °F 44% 30.24 in 10.0 mi SSW 5.8 mph - N/A   Clear
12:45 PM 55.4 °F - 32.0 °F 41% 30.19 in 10.0 mi WSW 5.8 mph - N/A   Clear
1:45 PM 57.2 °F - 32.0 °F 38% 30.17 in 10.0 mi SSW 8.1 mph - N/A   Clear
2:55 PM 57.2 °F - 30.2 °F 36% 30.14 in 10.0 mi SW 9.2 mph - N/A   Clear
3:45 PM 57.2 °F - 26.6 °F 31% 30.14 in 110.0 mi SW 12.7 mph - N/A   Clear
4:50 PM 51.8 °F - 28.4 °F 41% 30.13 in 10.0 mi SSW 8.1 mph - N/A   Clear
5:50 PM 46.4 °F 42.9 °F 30.2 °F 53% 30.14 in 10.0 mi SSW 6.9 mph - N/A   Clear
8:15 PM 42.8 °F 37.0 °F 32.0 °F 66% 30.14 in - SSW 10.4 mph - 0.00 in   Clear
8:35 PM 42.8 °F 37.0 °F 32.0 °F 66% 30.14 in - SSW 10.4 mph - 0.00 in   Clear
8:55 PM 42.8 °F 37.0 °F 33.8 °F 70% 30.14 in - SSW 10.4 mph - 0.00 in   Clear
9:15 PM 41.0 °F 34.7 °F 33.8 °F 76% 30.14 in - South 10.4 mph - 0.00 in   Clear
9:35 PM 39.2 °F 33.0 °F 33.8 °F 81% 30.13 in - South 9.2 mph - 0.00 in   Clear
9:55 PM 39.2 °F 32.5 °F 33.8 °F 81% 30.13 in - South 10.4 mph - 0.00 in   Clear
10:15 PM 39.2 °F 32.0 °F 33.8 °F 81% 30.12 in - South 11.5 mph - 0.00 in   Clear
10:35 PM 39.2 °F 32.5 °F 33.8 °F 81% 30.12 in - South 10.4 mph - N/A   Clear
10:55 PM 39.2 °F 33.0 °F 33.8 °F 81% 30.11 in - South 9.2 mph - 0.00 in   Clear
11:15 PM 39.2 °F 33.0 °F 33.8 °F 81% 30.10 in - South 9.2 mph - 0.00 in   Clear
11:35 PM 39.2 °F 33.6 °F 33.8 °F 81% 30.09 in - South 8.1 mph - 0.00 in   Unknown
11:55 PM 37.4 °F 32.1 °F 33.8 °F 87% 30.08 in - South 6.9 mph - 0.00 in   Unknown